www.pogodaiklimat.ru
Время
(UTC), дата
03 10.11
06 10.11
09 10.11
12 10.11
15 10.11
18 10.11
21 10.11
00 11.11
03 11.11
06 11.11
09 11.11
12 11.11
15 11.11
18 11.11
21 11.11
00 12.11
03 12.11
06 12.11
09 12.11
12 12.11
15 12.11
18 12.11
21 12.11
00 13.11
03 13.11
06 13.11
09 13.11
12 13.11
15 13.11
18 13.11
21 13.11
00 14.11
03 14.11
06 14.11
09 14.11
12 14.11
15 14.11
18 14.11
21 14.11
00 15.11
03 15.11
06 15.11
09 15.11
12 15.11
15 15.11
18 15.11
21 15.11
00 16.11
03 16.11
06 16.11
09 16.11
12 16.11
15 16.11
18 16.11
21 16.11
Ветер
(напр.,м/с)
Видим. Явления Облачность Т
(С)
Тd
(С)
f
(%)
Тe
(С)
Тes
(С)
Комфортность P
(гПа)
Po
(гПа)
Тmin
(С)
Tmax
(С)
R
(мм)
R24
(мм)
S
(см)
В 4 20 км {снег, метель} 3/0
[Ci fib]
-20.8 -23.1 82 -30 -30 по сезону 1008.1 1007.2
В 2 20 км {снег, метель} 4/0
[Ac trans Ci fib]
-22.2 -24.9 79 -28 -28 по сезону 1008.9 1008.0
ЮЗ 3 20 км ясно -27.2 -29.8 78 -36 -36 опасность
обморожения
1010.1 1009.1
Ю 2 20 км [диам. изморози 0 мм] 3/0
[Ac trans]
-26.7 -29.3 79 -34 -34 опасность
обморожения
1010.9 1009.9 -19.5 0.0
СЗ 2 20 км [диам. изморози 1 мм] 3/0
[Ci fib]
-27.0 -29.8 77 -34 -34 опасность
обморожения
1011.2 1010.2
З 2 20 км [диам. изморози 1 мм] 4/0
[Ac trans Ci fib]
-28.2 -31.1 76 -35 -35 опасность
обморожения
1011.6 1010.6
З 2 20 км [диам. изморози 1 мм] 4/0
[Ci fib]
-27.3 -30.3 76 -34 -34 опасность
обморожения
1011.9 1010.9
ЮЗ 2 20 км [диам. изморози 1 мм] 10/0
[Ac trans Ci fib]
-25.8 -29.1 74 -33 -33 опасность
обморожения
1011.9 1010.9 -28.5 5
ЮЗ 2 10 км слаб. снег [диам. изморози 1 мм] 10/0
[Ac trans Ci fib]
-21.9 -24.2 82 -28 -28 по сезону 1012.1 1011.2
ЮЗ 3 4000 м слаб. снег [диам. изморози 1 мм] 10/10 600 м
[Sc]
-21.1 -23.4 82 -29 -29 по сезону 1012.5 1011.6
З 2 4000 м слаб. снег [диам. изморози 1 мм] 10/10 300 м
[Sc]
-19.1 -21.1 84 -25 -25 по сезону 1013.4 1012.5
ЮЗ 3 4000 м слаб. снег [диам. изморози 1 мм] 10/10 600 м
[Sc]
-17.3 -19.4 84 -24 -24 по сезону 1014.1 1013.2 -17.3 0.3
З 3 4000 м слаб. снег [диам. изморози 1 мм] 10/10 1000 м
[Sc]
-15.4 -17.5 84 -22 -22 тепло 1014.8 1013.9
СЗ 6 4000 м слаб. снег {метель} 10/10 1000 м
[Sc]
-15.0 -17.8 79 -25 -25 по сезону 1016.0 1015.1
З 6 10 км снежные кристаллы {метель} 10/0
[Ac und]
-14.1 -17.4 76 -23 -23 по сезону 1017.7 1016.8
З 7 20 км позёмок {снег} 10/0
[Ac trans Ci fib]
-15.7 -19.0 76 -26 -26 по сезону 1018.8 1017.9 -16.0 0.0 5
ЮЗ 5 20 км позёмок 10/8 1000 м
[Sc Ac trans Ci fib]
-15.3 -18.9 74 -24 -24 по сезону 1020.6 1019.7
З 5 20 км позёмок 10/8 1000 м
[Sc Ac trans Ci fib]
-16.5 -20.5 71 -26 -26 по сезону 1021.8 1020.9
З 5 20 км позёмок 10/8 1000 м
[Sc Ac trans Ci fib]
-17.6 -21.4 72 -27 -27 по сезону 1023.4 1022.5
СЗ 3 20 км {метель} 10/6 1000 м
[Sc Ac trans Ci fib]
-17.7 -21.5 72 -25 -25 по сезону 1024.3 1023.4 -14.7
СЗ 5 20 км позёмок 10/8 1000 м
[Sc Ac und]
-18.6 -22.4 72 -28 -28 по сезону 1024.7 1023.8
СЗ 7 20 км позёмок 10/6 1000 м
[Sc Ac trans Ci fib]
-19.2 -23.2 71 -31 -31 опасность
обморожения
1024.7 1023.8
СЗ 5 4000 м слаб. снег {метель} 10/4 600 м
[Sc Ac trans Cs]
-18.4 -22.1 73 -28 -28 по сезону 1024.5 1023.6
СЗ 6 4000 м слаб. снег {метель} 10/4 600 м
[Sc Ac trans Cs]
-18.6 -21.8 76 -29 -29 по сезону 1024.2 1023.3 -19.3 0.2 5
СЗ 8 4000 м слаб. снег {метель} 10/10 600 м
[Sc]
-18.6 -21.4 79 -31 -31 опасность
обморожения
1022.6 1021.7
СЗ 7 4000 м слаб. снег {метель} 10/10 300 м
[Sc]
-17.6 -20.4 79 -29 -29 по сезону 1021.1 1020.2
СЗ 9-11
{12}
4000 м слаб. снег {метель} 10/8 600 м
[Sc As op]
-17.4 -20.2 79 -30 -30 по сезону 1020.6 1019.7
СЗ 10-12
{12}
4000 м слаб. снег {метель} 10/0 600 м
[As op]
-16.9 -19.7 79 -29 -29 по сезону 1020.2 1019.3 -16.7 1
СЗ 9-10
{12}
4000 м слаб. снег {метель} 10/0 600 м
[As op]
-16.1 -19.4 76 -28 -28 по сезону 1019.9 1019.0
З 6
{11}
4000 м слаб. снег {метель} 10/0 600 м
[As op]
-16.1 -19.4 76 -26 -26 по сезону 1019.8 1018.9
Ю 2 4000 м слаб. снег {метель} 10/10 600 м
[Sc]
-16.5 -19.3 79 -22 -22 тепло 1020.3 1019.4
штиль 0 4000 м слаб. снег {метель} 10/10 600 м
[Sc]
-16.9 -19.4 81 -17 -17 тепло 1020.2 1019.3 -18.5 0.4 4
штиль 0 20 км снежные кристаллы 10/8 300 м
[Sc Ac und]
-19.3 -21.2 85 -19 -19 тепло 1020.4 1019.5 -19.4
ЮЗ 3 20 км {снег} 3/0
[Ci fib]
-24.6 -26.2 86 -33 -33 опасность
обморожения
1020.5 1019.5
штиль 0 20 км [диам. изморози 1 мм] 3/3 1000 м
[Sc]
-24.0 -25.6 87 -24 -24 по сезону 1021.0 1020.0
штиль 0 20 км ледяные иглы [диам. изморози 4 мм] 1/1 1000 м
[Sc]
-28.1 -29.7 86 -28 -28 по сезону 1021.2 1020.2 -16.9 0.0
ЮЗ 1 20 км [диам. изморози 8 мм] 4/0
[Ci fib]
-28.8 -30.4 86 -33 -33 опасность
обморожения
1021.8 1020.8
ЮЗ 2 20 км [диам. изморози 11 мм] ясно -30.7 -32.4 85 -38 -38 опасность
обморожения
1022.6 1021.6
ЮЗ 1 500 м переохл. туман [диам. изморози 14 мм] ясно -28.2 -30.0 84 -32 -32 опасность
обморожения
1022.7 1021.7
З 2 20 км {туман} [диам. изморози 19 мм] 3/0
[Ci fib]
-29.7 -31.6 83 -37 -37 опасность
обморожения
1023.6 1022.6 -30.8 4
ЮЗ 2 20 км [диам. изморози 19 мм] 4/0
[Ci fib]
-30.4 -32.5 82 -38 -38 опасность
обморожения
1023.4 1022.4
ЮЗ 2 20 км [диам. изморози 20 мм] 1/0
[Ci fib]
-29.4 -31.9 79 -37 -37 опасность
обморожения
1024.1 1023.1
З 1 20 км [диам. изморози 20 мм] 5/0
[Ci fib]
-27.2 -29.8 78 -31 -31 опасность
обморожения
1025.2 1024.2
ЮЗ 2 20 км [диам. изморози 25 мм] 8/0
[Ci fib]
-29.3 -32.2 76 -37 -37 опасность
обморожения
1025.6 1024.6 -26.0
ЮЗ 2 20 км [диам. изморози 25 мм] 3/0
[Ci fib]
-29.7 -32.5 77 -37 -37 опасность
обморожения
1026.1 1025.1
ЮЗ 2 20 км [диам. изморози 26 мм] 5/0
[Ci fib]
-28.8 -31.6 77 -36 -36 опасность
обморожения
1026.8 1025.8
ЮЗ 3 20 км [диам. изморози 26 мм] ясно -29.1 -31.9 77 -39 -39 опасность
обморожения
1027.6 1026.6
З 2 20 км [диам. изморози 28 мм] 3/0
[Ac lent Ci fib]
-28.1 -30.9 77 -35 -35 опасность
обморожения
1028.4 1027.4 -30.4 4
ЮЗ 2 20 км [диам. изморози 28 мм] 10/10 200 м
[St]
-23.3 -25.3 84 -30 -30 по сезону 1029.1 1028.1
ЮЗ 3 4000 м дымка [диам. изморози 29 мм] 10/10 200 м
[St]
-18.1 -19.6 88 -25 -25 по сезону 1029.6 1028.7
ЮЗ 3 20 км [диам. изморози 30 мм] 10/10 200 м
[St]
-16.0 -17.3 90 -23 -23 по сезону 1030.5 1029.6
СЗ 2 20 км [диам. изморози 31 мм] 10/10 200 м
[St]
-14.9 -15.8 93 -20 -20 тепло 1031.5 1030.6 -14.7
СЗ 3 4000 м слаб. снег [диам. изморози 1 мм] 10/10 300 м
[Sc]
-14.4 -15.0 95 -21 -21 тепло 1031.6 1030.7
СЗ 6 10 км снежные кристаллы [диам. изморози 31 мм] 10/10 300 м
[Sc]
-13.3 -13.8 96 -22 -22 по сезону 1031.9 1031.0
СЗ 6 4000 м слаб. снег [диам. изморози 31 мм] 10/10 300 м
[Sc]
-13.4 -13.9 96 -23 -23 по сезону 1031.6 1030.7
Местоположение метеостанции Тикси (Якутия, Россия): широта 71.58 долгота 128.90 высота над уровнем моря 7 м.
В архиве по умолчанию представлена погода в Тикси за последнюю неделю. Архивные данные за месяц целиком и за предыдущие месяцы, начиная с января 2011 года, Вы можете получить, выбрав интересующий диапазон дат из раскрывающегося списка и нажав кнопку "Найти!".
*Определитесь, кто Вы:
Внимание! Время в таблицах - всемирное. Для получения местного времени необходимо прибавить поправку, которая равна 9 ч.
Смотрите также архив погоды в соседних городах и на ближайших метеорологических станциях:
Партнеры нашего сайта:      
Пояснения к столбцам:
  • Ветер - указаны скорость ветра в м/с - средняя за 10 мин, порывы в срок и между сроками (в фигурных скобках) и направление, откуда дует ветер: С - северный,
  • СВ - северо-восточный, В - восточный, ЮВ - юго-восточный, Ю - южный, ЮЗ - юго-западный, З - западный, СЗ - северо-западный.
  • Видимость - горизонтальная дальность видимости в метрах или километрах. При видимости от 1 до 10 км при отсутствии осадков обычно наблюдается дымка, при ухудшении видимости до 1 км и менее - туман. В сухую погоду видимость может ухудшаться дымом, пылью или мглою.
  • Явления - указаны атмосферные явления, наблюдавшиеся в срок или в последний час перед сроком; фигурными скобками обозначены явления, наблюдавшиеся между сроками (за 1-3 часа до срока); квадратными скобками обозначены град или гололедные отложения с указанием их диаметра в мм.
  • Облачность - указаны через наклонную черту общая и нижняя облачность в баллах и высота нижней границы облаков в метрах; квадратными скобками обозначены формы облаков: Ci - перистые, Cs - перисто-слоистые, Cc - перисто-кучевые, Ac - высококучевые, As - высокослоистые, Sc - слоисто-кучевые, Ns - слоисто-дождевые, Cu - кучевые, Cb - кучево-дождевые. Подробнее классификацию облаков см. в Атласе облаков (PDF).
  • T - Температура воздуха - температура, измеренная на высоте 2 м над землей.
  • Td - Температура точки росы - температура, при понижении до которой содержащийся в воздухе водяной пар достигнет насыщения.
  • f - Относительная влажность воздуха - влажноcть воздуха, измеренная на высоте 2 м над землей.
  • Te - Эффективная температура - температура, которую ощущает одетый по сезону человек в тени. Характеристика душности погоды. При расчете учитывается влияние влажности воздуха и скорости ветра на теплоощущения человека.
  • Tes - Эффективная температура на солнце - температура, которую ощущает человек, с поправкой на солнечный нагрев. Характеристика знойности погоды. Зависит от высоты солнца над горизонтом, облачности и скорости ветра. Ночью, в пасмурную погоду, а также при ветре 12 м/с и более поправка равна нулю.
  • P - Атмосферное давление - приведенное к уровню моря атмосферное давление.
  • Po - Атмосферное давление - измеренное на уровне метеостанции атмосферное давление.
  • Tmin - Минимальная температура - минимум температуры воздуха на высоте 2 м над землей.
  • Tmax - Максимальная температура - максимум температуры воздуха на высоте 2 м над землей.
  • R - Количество осадков - Количество выпавших осадков за период времени, мм. При наведении курсора мыши на число - период времени, за который выпало указанное количество осадков.
  • R24 - Количество осадков - Количество выпавших осадков за 24 часа, мм.
  • S - Снежный покров - Высота снежного покрова, см. При наведении курсора мыши на число - состояние снежного покрова и степень покрытия местности в баллах.